Location: Mansfield Dam
(30.3944°N, 97.9097°W)
Time: 03:42:24
(UTC-05:00)

Daily predictions for brighter satellites

Satellite Brightness Start Highest point End
(mag) Time Altitude Azimuth Time Altitude Azimuth Time Altitude Azimuth
Cosmos 2237 Rocket 4.5 04:16:32 10° NNE 04:20:36 20° ENE 04:24:37 10° ESE
Cosmos 1727 Rocket 4.4 04:46:01 59° NE 04:46:01 59° NE 04:51:24 10° NNE
NOSS 3-4 (A) 4.3 04:48:17 41° N 04:48:17 41° N 04:52:31 10° NNE
NOSS 3-4 (C) 4.3 04:48:21 42° N 04:48:21 42° N 04:52:37 10° NNE
Cosmos 2227 Rocket 3.4 04:49:36 35° NNE 04:49:36 35° NNE 04:52:48 10° NNE
Cosmos 2297 Rocket 2.7 04:57:49 54° NE 04:57:49 54° NE 05:02:08 10° NNE
Cosmos 2219 Rocket 3.7 05:02:32 26° SSE 05:02:32 26° SSE 05:04:55 10° SSE
GOES 2 Rocket 3.7 05:16:42 73° SSW 05:16:56 74° S 05:24:17 10° E
NOSS 0 Rocket 3.8 05:10:53 10° NNW 05:17:09 88° ENE 05:23:22 10° SSE
CZ-4B DEB 4.1 05:14:17 10° NNE 05:19:47 86° ESE 05:20:39 65° S
Cosmos 1605 Rocket 4.0 05:18:20 10° NNW 05:23:37 57° WNW 05:23:37 57° WNW
Cosmos 1339 Rocket 4.4 05:24:12 62° WSW 05:24:54 67° W 05:31:16 10° N
CZ-4B R/B 4.0 05:26:40 10° N 05:29:36 40° N 05:29:36 40° N
PAYLOAD B 4.1 05:25:42 10° N 05:31:08 64° WNW 05:31:22 63° W
CZ-4C R/B 4.1 05:38:46 25° SSW 05:38:46 25° SSW 05:42:29 10° S
Cosmos 923 Rocket 3.9 05:30:55 10° NNW 05:36:12 63° WSW 05:41:26 10° S
Okean 2 3.2 05:39:28 84° WNW 05:39:28 84° WNW 05:43:34 10° N
Cosmos 2333 Rocket 2.1 05:34:37 10° NNW 05:40:12 60° WSW 05:45:45 10° S
Okean O Rocket 3.5 05:36:30 10° N 05:37:51 18° NNW 05:37:51 18° NNW
NOSS 3-2 (A) 3.9 05:33:32 10° NNW 05:41:17 76° WSW 05:49:25 10° SSE
DELTA 2 R/B (1) 4.0 05:42:40 41° NW 05:43:54 48° NNW 05:49:17 10° NE
Cosmos 1606 Rocket 3.3 05:41:42 10° N 05:46:04 81° W 05:50:22 10° S
MOS 1 Rocket 4.4 05:44:30 10° NNE 05:49:15 48° E 05:54:14 10° S
Delta 2 Rocket 4.0 05:50:41 34° NNW 05:51:18 37° N 05:54:39 10° ENE
Cosmos 1898 Rocket 3.4 05:49:41 31° SSW 05:52:15 68° WNW 05:57:32 10° N
USA 215 3.7 05:48:21 10° S 05:54:17 37° SW 05:56:09 31° W
Cosmos 1726 Rocket 3.4 05:52:43 10° N 05:57:05 72° W 06:01:24 10° S
Lacrosse 5 3.7 05:57:13 15° NW 05:57:14 15° NW 06:00:13 10° N
Cosmos 1666 2.5 05:53:48 10° N 05:57:39 72° W 06:01:26 10° S
Cosmos 2061 Rocket 4.0 05:52:57 10° N 05:59:18 88° W 06:05:41 10° S
Cosmos 1602 Rocket 4.3 05:55:50 10° S 06:00:10 54° E 06:04:30 10° NNE
CZ-4B R/B 3.8 05:56:47 10° N 06:01:37 34° WNW 06:02:41 31° W
Meteor 2-4 Rocket 4.1 05:59:37 27° SW 06:02:13 42° WNW 06:07:47 10° N
Cosmos 1892 Rocket 4.0 06:01:57 38° W 06:02:28 40° W 06:06:42 10° N
Cosmos 2100 Rocket 3.9 05:56:16 10° N 06:02:30 74° W 06:08:46 10° S
Cosmos 1802 Rocket 4.0 05:56:33 10° N 06:02:43 86° E 06:08:50 10° S
Cosmos 858 Rocket 4.5 05:59:33 22° SW 06:02:51 60° WNW 06:08:04 10° N
Cosmos 2237 Rocket 2.4 05:59:29 10° NW 06:04:47 44° WSW 06:10:03 10° S
Cosmos 1937 Rocket 3.4 06:01:20 12° SSW 06:06:13 72° WNW 06:11:28 10° N
Delta 142 3.5 06:06:37 34° WSW 06:08:28 67° S 06:12:33 10° ESE
Hubble Space Telescope 2.0 06:07:52 25° SW 06:08:30 26° SSW 06:11:59 10° SE
Cosmos 292 Rocket 3.7 06:04:08 10° NNW 06:08:59 77° WSW 06:13:49 10° S
ATLAS 5 CENTAUR R/B 2.5 06:04:48 10° NW 06:10:58 62° WSW 06:17:27 10° SSE
NOSS 2-2 (D) 3.3 06:08:58 21° SSW 06:11:36 80° WNW 06:15:56 10° NNE
ASTRO F (AKARI) 4.3 06:10:11 10° S 06:13:14 50° W 06:16:20 10° NNW
PSLV R/B 4.1 06:10:58 10° N 06:14:55 35° WNW 06:17:01 22° SW
ADEOS II 2.3 06:11:56 10° N 06:16:59 49° WNW 06:22:01 10° SSW
ADEOS Rocket 3.6 06:10:48 10° N 06:17:14 41° WNW 06:23:03 10° SW
NOAA 6 4.4 06:12:11 10° NNE 06:17:22 68° ESE 06:22:30 10° S
CENTAUR R/B 4.1 06:09:42 10° NNW 06:17:22 48° NE 06:25:21 10° SE
Cosmos 1980 4.4 06:13:39 10° NW 06:18:28 29° WSW 06:23:17 10° SSW
NOSS 3-2 (C) 4.2 06:11:42 10° NW 06:19:12 53° WSW 06:27:05 10° S
USA 129 2.8 06:18:15 10° SSE 06:20:13 42° ENE 06:22:04 10° N
Cosmos 972 Rocket 4.2 06:15:58 10° S 06:21:12 86° ESE 06:27:06 10° NNE
Centaur D-1A AC-35 2.7 06:19:36 19° WSW 06:22:06 43° S 06:25:32 10° E
Meteor PRIRODA 4.1 06:20:26 10° N 06:23:54 37° WNW 06:27:18 10° SW
SL-16 R/B 2.1 06:18:55 10° NNW 06:24:36 76° WSW 06:30:14 10° SSE
NOSS 2-2 (C) 3.6 06:23:56 16° SW 06:26:58 51° WNW 06:31:15 10° NNE
OAO 2 Rocket 3.4 06:24:41 19° WSW 06:28:30 81° NNW 06:33:51 10° ENE
Cosmos 2228 3.0 06:24:18 10° NNW 06:28:37 58° W 06:32:53 10° S
NOSS 2-2 (E) 3.9 06:26:03 17° WSW 06:28:50 43° WNW 06:33:07 10° NNE
Fermi 4.5 06:30:46 17° WSW 06:33:33 42° S 06:37:24 10° ESE
OTV 4 0.1 06:32:39 20° WNW 06:34:23 81° SSW 06:37:06 10° ESE
Cosmos 2016 Rocket 4.1 06:31:52 10° NNW 06:38:02 56° W 06:44:06 10° SSW
Cosmos 2297 Rocket 4.0 06:39:40 11° WNW 06:41:06 11° WNW 06:42:54 10° NW
Okean-O 3.8 06:40:21 10° NNW 06:43:44 22° WNW 06:47:08 10° WSW
FALCON 9 R/B 4.2 06:40:19 12° WSW 06:47:11 85° NNW 07:19:07 10° ENE
Cosmos 2058 Rocket 4.2 06:44:34 10° NW 06:47:57 22° W 06:51:20 10° SW
Cosmos 2123 Rocket 4.2 06:43:09 10° SSW 06:49:03 48° W 06:55:00 10° N
BREEZE-M DEB (TANK) 4.1 06:44:28 10° NW 06:52:29 38° NNE 06:55:31 10° E
COSMO-SKYMED 1 2.8 06:50:44 10° SSE 06:55:03 80° ENE 06:59:24 10° N
Aureole 2 Rocket 2.9 06:52:50 10° NW 06:55:48 32° W 06:58:32 10° SSW
SL-24 R/B 4.0 06:52:01 10° N 06:56:03 50° WNW 06:59:42 10° SSW
CSL-04 Rocket 3.8 06:53:21 10° NNE 06:58:38 82° ESE 07:03:57 10° S
Meteor 2-17 Rocket 4.5 06:54:17 10° N 07:00:26 77° W 07:06:34 10° S
Cosmos 1825 Rocket 3.6 06:56:32 10° S 07:00:57 88° E 07:05:21 10° N
